Aérodrome :
LOGIN :

S'inscrire | Disclaimer

   EN    FR    IT 

 










Légende :    VFR   VFR Marginal   IFR   IFR Intensif   IFR Très Intensif
Visi : 
Plafond : 
>= 8 km
>= 3000ft
5 à 8 km
1000 à 3000 ft
1500m à 5 km
500 à 1000 ft
800 à 1500m
200 à 500 ft
< 800m
< 200 ft
Symboles :   Orages  Brouillard  Fortes neiges  Fortes précipitations  Vent > 20 kt
SIGMETs :   Divers  Orages  Givrage  Turbulence  Onde Orograph.  Cendres Volcan.






- Altitude de l'aérodrome : 465 ft


ENFB - Statfjord B Platform

DERNIER METAR :
  • 261720Z AUTO 21014KT 9999NDV FEW018/// 04/01 Q0989 W///S4

METARs EXPIRÉS :
  • 261650Z AUTO 21015KT 9999NDV FEW016/// SCT027/// BKN064/// 04/01 Q0989 W///S4
  • 261620Z AUTO 19016KT 170V340 9999NDV -SHRA FEW015/// BKN017/// 04/01 Q0989 W///S4
  • 261550Z AUTO 21024KT 9999NDV FEW023/// BKN047/// BKN180/// 04/01 Q0989 W///S4
  • 261520Z AUTO 20019KT 9999NDV FEW019/// BKN031/// 05/00 Q0989 W///S4
  • 261450Z AUTO 17019KT 9999NDV BKN016/// 05/01 Q0989 W///S4

TAF N/A



MET'MAP, la Météo Aéronautique d'un coup d'oeil ! - Copyright ORBIFLY Décembre 2007 - Disclaimer

ORBIFLY MET'MAP TEAM :

Programmation & Développement : Alexandra Zaïnal
Sur une idée originale de : Baudouin d'Aumeries
Assistance à la programmation : Marc-Olivier Méhu
Soutien technique & logistique : Manuel Goepfert

Contact : metmap@orbifly.com




SOURCES & CREDITS :

   NOAA